FFA003 ENTC-ENSB

Flight info

Callsign FFA003
Flight time 1h 28m
Altitude 37000
Route LOMVI P600 VAVAD/N0454F390 P600 INPAR
Aircraft A20N/M-SDE2E3FGHIRWXY/LB1

Departure

Time 2026-05-07 19:17
Airport Tromsø Airport (ENTC)

Arrival

Time 2026-05-07 20:46
Airport Svalbard Airport, Longyear (ENSB)
Time Latitude Longitude Altitude Speed Heading
2026-05-07 18:25 69.67741 18.90753 39 ft 0 kts 283°
2026-05-07 19:02 69.67738 18.90793 13 ft 2 kts 283°
2026-05-07 19:03 69.67734 18.90841 40 ft 2 kts 283°
2026-05-07 19:03 69.67730 18.90888 42 ft 2 kts 283°
2026-05-07 19:03 69.67726 18.90934 43 ft 2 kts 283°
2026-05-07 19:03 69.67723 18.90981 39 ft 2 kts 282°
2026-05-07 19:04 69.67718 18.91027 41 ft 2 kts 298°
2026-05-07 19:04 69.67707 18.91061 42 ft 2 kts 335°
2026-05-07 19:04 69.67691 18.91072 42 ft 2 kts 359°
2026-05-07 19:04 69.67682 18.91070 42 ft 0 kts 10°
2026-05-07 19:05 69.67683 18.91070 42 ft 0 kts 10°
2026-05-07 19:06 69.67688 18.91073 42 ft 3 kts 10°
2026-05-07 19:07 69.67718 18.91092 43 ft 5 kts 13°
2026-05-07 19:07 69.67763 18.91122 43 ft 8 kts 13°
2026-05-07 19:07 69.67835 18.91172 41 ft 13 kts 13°
2026-05-07 19:07 69.67935 18.91239 39 ft 17 kts 13°
2026-05-07 19:08 69.68068 18.91328 36 ft 21 kts 11°
2026-05-07 19:08 69.68221 18.91427 32 ft 24 kts 12°
2026-05-07 19:08 69.68387 18.91497 29 ft 25 kts
2026-05-07 19:08 69.68552 18.91567 29 ft 23 kts 14°
2026-05-07 19:09 69.68691 18.91661 27 ft 21 kts 13°
2026-05-07 19:09 69.68725 18.91684 24 ft 0 kts 13°
2026-05-07 19:10 69.68728 18.91686 24 ft 2 kts 13°
2026-05-07 19:10 69.68757 18.91704 23 ft 6 kts 13°
2026-05-07 19:11 69.68777 18.91768 26 ft 3 kts 72°
2026-05-07 19:11 69.68777 18.91841 23 ft 4 kts 102°
2026-05-07 19:11 69.68772 18.91898 25 ft 5 kts 103°
2026-05-07 19:11 69.68772 18.91903 25 ft 0 kts 103°
2026-05-07 19:13 69.68772 18.91904 25 ft 0 kts 103°
2026-05-07 19:13 69.68769 18.91938 23 ft 3 kts 103°
2026-05-07 19:14 69.68759 18.92062 25 ft 6 kts 103°
2026-05-07 19:14 69.68761 18.92133 24 ft 4 kts 68°
2026-05-07 19:14 69.68802 18.92198 24 ft 6 kts 13°
2026-05-07 19:14 69.68909 18.92270 26 ft 25 kts 13°
2026-05-07 19:15 69.69097 18.92399 28 ft 26 kts 13°
2026-05-07 19:15 69.69260 18.92512 26 ft 21 kts 19°
2026-05-07 19:15 69.69343 18.92656 25 ft 9 kts 358°
2026-05-07 19:15 69.69354 18.92616 27 ft 4 kts 271°
2026-05-07 19:16 69.69312 18.92542 27 ft 7 kts 193°
2026-05-07 19:16 69.69310 18.92541 27 ft 0 kts 193°
2026-05-07 19:17 69.69206 18.92472 28 ft 47 kts 193°
2026-05-07 19:17 69.68702 18.92141 25 ft 112 kts 193°
2026-05-07 19:17 69.67719 18.91484 150 ft 162 kts 193°
2026-05-07 19:17 69.66642 18.90406 893 ft 158 kts 200°
2026-05-07 19:18 69.65610 18.89627 1953 ft 155 kts 191°
2026-05-07 19:18 69.64455 18.89008 2395 ft 183 kts 191°
2026-05-07 19:18 69.63136 18.88272 2784 ft 205 kts 192°
2026-05-07 19:18 69.61666 18.87383 3299 ft 222 kts 193°
2026-05-07 19:19 69.60151 18.86387 4114 ft 225 kts 197°
2026-05-07 19:19 69.58802 18.84357 4927 ft 226 kts 225°
2026-05-07 19:19 69.58083 18.80405 5739 ft 228 kts 264°
2026-05-07 19:19 69.58204 18.75800 6608 ft 229 kts 281°
2026-05-07 19:20 69.58563 18.71417 7401 ft 231 kts 285°
2026-05-07 19:20 69.59229 18.67227 8201 ft 234 kts 307°
2026-05-07 19:20 69.60530 18.64322 8994 ft 240 kts 338°
2026-05-07 19:20 69.62193 18.63922 9794 ft 247 kts 12°
2026-05-07 19:21 69.63790 18.65839 10555 ft 252 kts 27°
2026-05-07 19:21 69.65315 18.68398 11320 ft 255 kts 29°
2026-05-07 19:21 69.66843 18.71059 12098 ft 259 kts 29°
2026-05-07 19:21 69.68394 18.73737 12872 ft 262 kts 28°
2026-05-07 19:22 69.69974 18.76434 13640 ft 265 kts 28°
2026-05-07 19:22 69.71598 18.79182 14358 ft 269 kts 28°
2026-05-07 19:22 69.73214 18.81910 15048 ft 271 kts 27°
2026-05-07 19:22 69.74854 18.84675 15723 ft 274 kts 27°
2026-05-07 19:23 69.76510 18.87467 16400 ft 277 kts 27°
2026-05-07 19:23 69.78184 18.90293 17080 ft 280 kts 27°
2026-05-07 19:23 69.79873 18.93149 17757 ft 283 kts 27°
2026-05-07 19:23 69.81617 18.95804 18437 ft 284 kts 19°
2026-05-07 19:24 69.83500 18.97484 19034 ft 282 kts
2026-05-07 19:24 69.85455 18.98071 19638 ft 282 kts
2026-05-07 19:24 69.87422 18.98296 20245 ft 284 kts 359°
2026-05-07 19:24 69.89409 18.98461 20829 ft 287 kts 359°
2026-05-07 19:25 69.91422 18.98628 21404 ft 290 kts 359°
2026-05-07 19:25 69.93424 18.98804 21959 ft 293 kts 360°
2026-05-07 19:25 69.94178 18.98872 22164 ft 294 kts
2026-05-07 19:25 69.97795 18.99210 23130 ft 299 kts
2026-05-07 19:26 69.99882 18.99410 23661 ft 302 kts
2026-05-07 19:26 70.01996 18.99614 24079 ft 305 kts
2026-05-07 19:26 70.04134 18.99821 24494 ft 308 kts
2026-05-07 19:26 70.06288 18.99955 24901 ft 311 kts 358°
2026-05-07 19:27 70.08455 18.99456 25298 ft 313 kts 350°
2026-05-07 19:27 70.10587 18.98076 25696 ft 315 kts 344°
2026-05-07 19:27 70.12724 18.96289 25926 ft 324 kts 342°
2026-05-07 19:27 70.14911 18.94265 26099 ft 334 kts 341°
2026-05-07 19:28 70.17149 18.92094 26262 ft 344 kts 341°
2026-05-07 19:28 70.19450 18.89833 26432 ft 353 kts 341°
2026-05-07 19:28 70.21817 18.87511 26601 ft 362 kts 341°
2026-05-07 19:28 70.24245 18.85146 26744 ft 371 kts 341°
2026-05-07 19:29 70.26766 18.82705 26921 ft 380 kts 341°
2026-05-07 19:29 70.29344 18.80217 27079 ft 389 kts 341°
2026-05-07 19:29 70.31949 18.77705 27243 ft 397 kts 341°
2026-05-07 19:29 70.34603 18.75143 27399 ft 405 kts 341°
2026-05-07 19:30 70.37308 18.72526 27554 ft 412 kts 341°
2026-05-07 19:30 70.40061 18.69853 27704 ft 420 kts 341°
2026-05-07 19:30 70.42827 18.67159 27854 ft 427 kts 341°
2026-05-07 19:30 70.45676 18.64374 28003 ft 433 kts 341°
2026-05-07 19:31 70.48561 18.61544 28146 ft 440 kts 341°
2026-05-07 19:31 70.51492 18.58662 28286 ft 447 kts 341°
2026-05-07 19:31 70.54467 18.55727 28456 ft 452 kts 341°
2026-05-07 19:31 70.57461 18.52765 28768 ft 454 kts 341°
2026-05-07 19:32 70.60464 18.49783 29193 ft 454 kts 341°
2026-05-07 19:32 70.62495 18.47763 29476 ft 454 kts 341°
2026-05-07 19:32 70.65502 18.44761 29744 ft 457 kts 341°
2026-05-07 19:32 70.68527 18.41733 30005 ft 460 kts 341°
2026-05-07 19:33 70.71569 18.38677 30310 ft 460 kts 341°
2026-05-07 19:33 70.74609 18.35613 30588 ft 461 kts 341°
2026-05-07 19:33 70.77616 18.32573 30874 ft 461 kts 341°
2026-05-07 19:33 70.80666 18.29480 31152 ft 462 kts 341°
2026-05-07 19:34 70.83721 18.26370 31391 ft 463 kts 341°
2026-05-07 19:34 70.86865 18.23161 31695 ft 463 kts 341°
2026-05-07 19:34 70.89916 18.20035 31963 ft 464 kts 341°
2026-05-07 19:34 70.92975 18.16892 32242 ft 464 kts 341°
2026-05-07 19:35 70.96045 18.13726 32474 ft 465 kts 341°
2026-05-07 19:35 70.99109 18.10557 32746 ft 465 kts 341°
2026-05-07 19:35 71.02185 18.07365 33006 ft 466 kts 341°
2026-05-07 19:35 71.05264 18.04159 33261 ft 466 kts 341°
2026-05-07 19:36 71.08329 18.00957 33532 ft 466 kts 341°
2026-05-07 19:36 71.11365 17.97776 33775 ft 466 kts 341°
2026-05-07 19:36 71.14439 17.94543 33988 ft 467 kts 341°
2026-05-07 19:36 71.17526 17.91287 34214 ft 467 kts 341°
2026-05-07 19:37 71.20609 17.88023 34411 ft 467 kts 341°
2026-05-07 19:37 71.23686 17.84754 34591 ft 468 kts 341°
2026-05-07 19:37 71.26774 17.81463 34788 ft 468 kts 341°
2026-05-07 19:37 71.29854 17.78169 34970 ft 468 kts 341°
2026-05-07 19:38 71.32920 17.74880 35157 ft 468 kts 341°
2026-05-07 19:38 71.35970 17.71596 35324 ft 469 kts 341°
2026-05-07 19:38 71.39108 17.68206 35497 ft 470 kts 341°
2026-05-07 19:38 71.42188 17.64868 35672 ft 469 kts 341°
2026-05-07 19:39 71.45284 17.61501 35837 ft 470 kts 341°
2026-05-07 19:39 71.48372 17.58131 35996 ft 470 kts 341°
2026-05-07 19:39 71.51467 17.54742 36165 ft 470 kts 341°
2026-05-07 19:39 71.54523 17.51385 36331 ft 470 kts 341°
2026-05-07 19:40 71.57613 17.47979 36483 ft 470 kts 341°
2026-05-07 19:40 71.60701 17.44562 36618 ft 471 kts 341°
2026-05-07 19:40 71.63803 17.41118 36749 ft 471 kts 341°
2026-05-07 19:40 71.66899 17.37669 36894 ft 471 kts 341°
2026-05-07 19:41 71.69989 17.34216 37046 ft 471 kts 341°
2026-05-07 19:41 71.73087 17.30741 37135 ft 472 kts 341°
2026-05-07 19:41 71.79279 17.23759 37134 ft 472 kts 340°
2026-05-07 19:42 71.85468 17.16732 37135 ft 472 kts 340°
2026-05-07 19:42 71.91649 17.09664 37141 ft 471 kts 340°
2026-05-07 19:43 71.97827 17.02592 37138 ft 471 kts 343°
2026-05-07 19:43 72.04260 16.98529 37151 ft 471 kts 352°
2026-05-07 19:44 72.10766 16.95834 37148 ft 471 kts 353°
2026-05-07 19:44 72.17277 16.93422 37148 ft 471 kts 354°
2026-05-07 19:45 72.23795 16.91005 37153 ft 471 kts 353°
2026-05-07 19:45 72.30321 16.88523 37154 ft 471 kts 353°
2026-05-07 19:46 72.36837 16.86005 37156 ft 471 kts 353°
2026-05-07 19:46 72.43380 16.83453 37164 ft 471 kts 353°
2026-05-07 19:47 72.49900 16.80892 37159 ft 471 kts 353°
2026-05-07 19:47 72.56378 16.78331 37168 ft 471 kts 353°
2026-05-07 19:48 72.62897 16.75735 37163 ft 471 kts 353°
2026-05-07 19:48 72.69394 16.73129 37170 ft 467 kts 353°
2026-05-07 19:49 72.75799 16.70540 37172 ft 461 kts 353°
2026-05-07 19:49 72.82159 16.67952 37180 ft 460 kts 353°
2026-05-07 19:50 72.88525 16.65342 37173 ft 460 kts 353°
2026-05-07 19:50 72.94892 16.62713 37181 ft 461 kts 353°
2026-05-07 19:51 73.01261 16.60065 37184 ft 461 kts 353°
2026-05-07 19:51 73.07591 16.57413 37185 ft 461 kts 353°
2026-05-07 19:52 73.13955 16.54727 37189 ft 461 kts 353°
2026-05-07 19:52 73.20324 16.52020 37188 ft 461 kts 353°
2026-05-07 19:53 73.26685 16.49295 37191 ft 460 kts 353°
2026-05-07 19:53 73.33047 16.46551 37197 ft 460 kts 353°
2026-05-07 19:54 73.39453 16.43766 37201 ft 461 kts 353°
2026-05-07 19:54 73.45864 16.40956 37201 ft 461 kts 353°
2026-05-07 19:55 73.52250 16.38136 37209 ft 460 kts 353°
2026-05-07 19:55 73.58603 16.35311 37215 ft 460 kts 353°
2026-05-07 19:56 73.64987 16.32449 37218 ft 460 kts 353°
2026-05-07 19:56 73.71342 16.29579 37217 ft 460 kts 353°
2026-05-07 19:57 73.77690 16.26690 37223 ft 460 kts 353°
2026-05-07 19:57 73.84080 16.23759 37228 ft 459 kts 353°
2026-05-07 19:58 73.89355 16.21323 37229 ft 460 kts 353°
2026-05-07 19:58 73.95705 16.18369 37232 ft 460 kts 353°
2026-05-07 19:59 74.02058 16.15391 37239 ft 460 kts 353°
2026-05-07 19:59 74.08402 16.12394 37240 ft 459 kts 353°
2026-05-07 20:00 74.14824 16.09335 37244 ft 459 kts 353°
2026-05-07 20:00 74.21170 16.06289 37246 ft 459 kts 353°
2026-05-07 20:01 74.27514 16.03221 37244 ft 459 kts 353°
2026-05-07 20:01 74.33860 16.00127 37245 ft 459 kts 353°
2026-05-07 20:02 74.40195 15.97014 37253 ft 459 kts 353°
2026-05-07 20:02 74.46534 15.93872 37255 ft 459 kts 353°
2026-05-07 20:03 74.52867 15.90707 37261 ft 459 kts 353°
2026-05-07 20:03 74.59202 15.87519 37263 ft 459 kts 353°
2026-05-07 20:04 74.65524 15.84310 37258 ft 459 kts 353°
2026-05-07 20:04 74.71906 15.81043 37268 ft 459 kts 353°
2026-05-07 20:05 74.78237 15.77776 37274 ft 458 kts 353°
2026-05-07 20:05 74.84557 15.74491 37272 ft 458 kts 353°
2026-05-07 20:06 74.90920 15.71152 37272 ft 458 kts 353°
2026-05-07 20:06 74.97198 15.67831 37277 ft 458 kts 353°
2026-05-07 20:07 75.03562 15.64438 37278 ft 458 kts 352°
2026-05-07 20:07 75.09879 15.61040 37283 ft 458 kts 352°
2026-05-07 20:08 75.16204 15.57611 37285 ft 458 kts 352°
2026-05-07 20:08 75.22526 15.54154 37288 ft 458 kts 352°
2026-05-07 20:09 75.28882 15.50650 37287 ft 458 kts 352°
2026-05-07 20:10 75.38399 15.45344 37294 ft 458 kts 352°
2026-05-07 20:10 75.44706 15.41790 37294 ft 457 kts 352°
2026-05-07 20:11 75.51013 15.38206 37298 ft 457 kts 352°
2026-05-07 20:11 75.57261 15.34624 37300 ft 458 kts 352°
2026-05-07 20:12 75.63704 15.30900 37304 ft 458 kts 352°
2026-05-07 20:12 75.69977 15.27243 37306 ft 457 kts 352°
2026-05-07 20:13 75.76283 15.23534 37303 ft 457 kts 352°
2026-05-07 20:13 75.82632 15.19765 37307 ft 457 kts 352°
2026-05-07 20:14 75.88923 15.15999 37312 ft 457 kts 352°
2026-05-07 20:14 75.95262 15.12168 37312 ft 457 kts 352°
2026-05-07 20:15 76.01552 15.08334 37313 ft 457 kts 352°
2026-05-07 20:15 76.07841 15.04466 37315 ft 457 kts 352°
2026-05-07 20:16 76.14131 15.00563 37328 ft 457 kts 352°
2026-05-07 20:16 76.20415 14.96630 37324 ft 457 kts 352°
2026-05-07 20:17 76.26698 14.92661 37315 ft 457 kts 352°
2026-05-07 20:17 76.31931 14.89328 37224 ft 457 kts 352°
2026-05-07 20:17 76.35119 14.87274 36975 ft 457 kts 352°
2026-05-07 20:18 76.38278 14.85215 36751 ft 457 kts 352°
2026-05-07 20:18 76.41425 14.83148 36160 ft 459 kts 352°
2026-05-07 20:18 76.44599 14.81052 35363 ft 464 kts 352°
2026-05-07 20:18 76.47791 14.78934 34672 ft 465 kts 352°
2026-05-07 20:19 76.50964 14.76820 33865 ft 468 kts 352°
2026-05-07 20:19 76.54214 14.74644 33296 ft 462 kts 352°
2026-05-07 20:19 76.57355 14.72529 32806 ft 454 kts 352°
2026-05-07 20:19 76.60416 14.70459 32279 ft 447 kts 352°
2026-05-07 20:20 76.63480 14.68379 31755 ft 443 kts 352°
2026-05-07 20:20 76.66505 14.66317 31238 ft 439 kts 352°
2026-05-07 20:20 76.69510 14.64261 30718 ft 435 kts 352°
2026-05-07 20:20 76.72492 14.62211 30146 ft 430 kts 352°
2026-05-07 20:21 76.75404 14.60198 29593 ft 416 kts 352°
2026-05-07 20:21 76.78255 14.58215 29095 ft 402 kts 352°
2026-05-07 20:21 76.80942 14.56339 28617 ft 390 kts 352°
2026-05-07 20:21 76.83620 14.54464 28143 ft 380 kts 352°
2026-05-07 20:22 76.86199 14.52653 27680 ft 371 kts 352°
2026-05-07 20:22 76.88716 14.50879 27223 ft 362 kts 352°
2026-05-07 20:22 76.91201 14.49122 26778 ft 356 kts 352°
2026-05-07 20:22 76.93626 14.47404 26329 ft 355 kts 352°
2026-05-07 20:23 76.96094 14.45651 25873 ft 354 kts 353°
2026-05-07 20:23 76.98559 14.43891 25416 ft 351 kts 353°
2026-05-07 20:23 77.00958 14.42170 24973 ft 349 kts 353°
2026-05-07 20:23 77.03352 14.40447 24536 ft 349 kts 353°
2026-05-07 20:24 77.05752 14.38713 24088 ft 349 kts 353°
2026-05-07 20:24 77.08151 14.36973 23585 ft 350 kts 353°
2026-05-07 20:24 77.10681 14.35130 23089 ft 348 kts 353°
2026-05-07 20:24 77.12932 14.33484 22667 ft 346 kts 353°
2026-05-07 20:25 77.15335 14.31719 22210 ft 344 kts 353°
2026-05-07 20:25 77.17663 14.30004 21766 ft 343 kts 353°
2026-05-07 20:25 77.20013 14.28269 21321 ft 341 kts 352°
2026-05-07 20:25 77.22349 14.26540 20871 ft 340 kts 352°
2026-05-07 20:26 77.24678 14.24810 20424 ft 339 kts 352°
2026-05-07 20:26 77.27004 14.23076 19982 ft 337 kts 352°
2026-05-07 20:26 77.29312 14.21349 19541 ft 336 kts 352°
2026-05-07 20:26 77.31625 14.19613 19085 ft 336 kts 352°
2026-05-07 20:27 77.33932 14.17875 18643 ft 335 kts 352°
2026-05-07 20:27 77.36224 14.16140 18152 ft 333 kts 352°
2026-05-07 20:27 77.38499 14.14411 17717 ft 330 kts 352°
2026-05-07 20:27 77.40765 14.12683 17275 ft 328 kts 352°
2026-05-07 20:28 77.43011 14.10962 16841 ft 326 kts 352°
2026-05-07 20:28 77.45248 14.09242 16385 ft 324 kts 352°
2026-05-07 20:28 77.47448 14.07547 15967 ft 322 kts 352°
2026-05-07 20:28 77.49651 14.05845 15534 ft 320 kts 352°
2026-05-07 20:29 77.51860 14.04132 15103 ft 318 kts 352°
2026-05-07 20:29 77.54037 14.02439 14677 ft 316 kts 352°
2026-05-07 20:29 77.56198 14.00752 14254 ft 314 kts 352°
2026-05-07 20:29 77.58378 13.99044 13795 ft 312 kts 352°
2026-05-07 20:30 77.60513 13.97365 13369 ft 309 kts 352°
2026-05-07 20:30 77.62624 13.95699 12949 ft 307 kts 352°
2026-05-07 20:30 77.64723 13.94037 12543 ft 305 kts 352°
2026-05-07 20:30 77.66810 13.92378 12133 ft 303 kts 352°
2026-05-07 20:31 77.68882 13.90727 11716 ft 300 kts 352°
2026-05-07 20:31 77.70922 13.89093 11323 ft 294 kts 352°
2026-05-07 20:31 77.72920 13.87487 10930 ft 289 kts 352°
2026-05-07 20:31 77.74860 13.85921 10723 ft 276 kts 352°
2026-05-07 20:32 77.76715 13.84417 10542 ft 267 kts 352°
2026-05-07 20:32 77.78539 13.82939 10225 ft 265 kts 352°
2026-05-07 20:32 77.80323 13.81492 10059 ft 255 kts 351°
2026-05-07 20:32 77.82042 13.80089 9887 ft 246 kts 351°
2026-05-07 20:33 77.83716 13.78719 9593 ft 242 kts 351°
2026-05-07 20:33 77.85374 13.77363 9257 ft 241 kts 351°
2026-05-07 20:33 77.87018 13.76015 8928 ft 239 kts 351°
2026-05-07 20:33 77.88655 13.74669 8601 ft 238 kts 351°
2026-05-07 20:34 77.90292 13.73321 8137 ft 241 kts 351°
2026-05-07 20:34 77.91952 13.71950 7629 ft 242 kts 351°
2026-05-07 20:34 77.93611 13.70573 7132 ft 242 kts 351°
2026-05-07 20:34 77.95271 13.69192 6678 ft 241 kts 351°
2026-05-07 20:35 77.96945 13.67790 6390 ft 232 kts 350°
2026-05-07 20:35 77.98459 13.66522 6232 ft 226 kts 350°
2026-05-07 20:35 78.00011 13.65221 6076 ft 228 kts 350°
2026-05-07 20:35 78.01572 13.63908 5798 ft 227 kts 350°
2026-05-07 20:36 78.03118 13.62599 5612 ft 225 kts 350°
2026-05-07 20:36 78.04666 13.61408 5358 ft 224 kts 356°
2026-05-07 20:36 78.06219 13.61966 5254 ft 222 kts 14°
2026-05-07 20:36 78.07662 13.64591 5175 ft 222 kts 25°
2026-05-07 20:37 78.09051 13.67978 5132 ft 223 kts 27°
2026-05-07 20:37 78.10418 13.71549 5088 ft 223 kts 28°
2026-05-07 20:37 78.11776 13.75173 5038 ft 223 kts 28°
2026-05-07 20:37 78.13129 13.78813 4956 ft 223 kts 28°
2026-05-07 20:38 78.14502 13.82524 4874 ft 222 kts 28°
2026-05-07 20:38 78.15881 13.86265 4797 ft 222 kts 28°
2026-05-07 20:38 78.16793 13.88745 4745 ft 222 kts 28°
2026-05-07 20:38 78.18135 13.92402 4658 ft 221 kts 28°
2026-05-07 20:39 78.19487 13.96099 4556 ft 222 kts 28°
2026-05-07 20:39 78.20825 13.99767 4211 ft 223 kts 28°
2026-05-07 20:39 78.22196 14.03532 3863 ft 223 kts 28°
2026-05-07 20:39 78.23539 14.07319 3513 ft 223 kts 31°
2026-05-07 20:40 78.24827 14.11360 3166 ft 223 kts 32°
2026-05-07 20:40 78.26099 14.15525 3024 ft 216 kts 33°
2026-05-07 20:40 78.27341 14.19644 3020 ft 216 kts 33°
2026-05-07 20:40 78.28591 14.23811 3017 ft 218 kts 34°
2026-05-07 20:41 78.29726 14.28722 3017 ft 218 kts 52°
2026-05-07 20:41 78.30338 14.35488 3020 ft 219 kts 81°
2026-05-07 20:41 78.30250 14.42825 3051 ft 209 kts 100°
2026-05-07 20:41 78.29913 14.49685 3038 ft 203 kts 104°
2026-05-07 20:42 78.29546 14.56338 3018 ft 199 kts 104°
2026-05-07 20:42 78.29188 14.62826 3020 ft 191 kts 104°
2026-05-07 20:42 78.28852 14.68969 3031 ft 183 kts 104°
2026-05-07 20:42 78.28528 14.74949 3033 ft 178 kts 104°
2026-05-07 20:43 78.28217 14.80709 3024 ft 170 kts 104°
2026-05-07 20:43 78.27933 14.85979 3047 ft 152 kts 103°
2026-05-07 20:43 78.27665 14.90949 2969 ft 150 kts 103°
2026-05-07 20:43 78.27400 14.95906 2823 ft 150 kts 103°
2026-05-07 20:44 78.27138 15.00880 2616 ft 150 kts 104°
2026-05-07 20:44 78.26878 15.05839 2358 ft 149 kts 104°
2026-05-07 20:44 78.26623 15.10751 2075 ft 148 kts 104°
2026-05-07 20:44 78.26365 15.15640 1758 ft 147 kts 104°
2026-05-07 20:45 78.26091 15.20399 1414 ft 146 kts 106°
2026-05-07 20:45 78.25817 15.25180 1077 ft 145 kts 105°
2026-05-07 20:45 78.25553 15.29989 765 ft 143 kts 105°
2026-05-07 20:45 78.25276 15.34650 481 ft 142 kts 104°
2026-05-07 20:46 78.25019 15.39221 239 ft 140 kts 105°
2026-05-07 20:46 78.24765 15.43779 95 ft 123 kts 103°
2026-05-07 20:46 78.24612 15.46545 95 ft 42 kts 105°
2026-05-07 20:46 78.24563 15.47424 90 ft 42 kts 105°
2026-05-07 20:47 78.24573 15.48212 95 ft 17 kts 67°
2026-05-07 20:47 78.24593 15.48629 93 ft 0 kts 70°
2026-05-07 20:48 78.24594 15.48636 93 ft 0 kts 70°
2026-05-07 20:48 78.24596 15.48659 92 ft 1 kts 68°
2026-05-07 20:48 78.24599 15.48682 93 ft 1 kts 60°
2026-05-07 20:49 78.24606 15.48729 93 ft 4 kts 45°
2026-05-07 20:49 78.24624 15.48797 92 ft 3 kts 27°
2026-05-07 20:49 78.24633 15.48865 94 ft 8 kts 78°
2026-05-07 20:49 78.24628 15.49094 91 ft 2 kts 94°
2026-05-07 20:50 78.24625 15.49174 94 ft 3 kts 99°
2026-05-07 20:50 78.24626 15.49250 93 ft 2 kts 83°
2026-05-07 20:50 78.24629 15.49325 93 ft 2 kts 78°
2026-05-07 20:50 78.24629 15.49341 93 ft 2 kts 78°
2026-05-07 20:51 78.24632 15.49402 92 ft 3 kts 74°
2026-05-07 20:51 78.24633 15.49417 91 ft 0 kts 70°